Theta_e
309 311 314 315 315 314 311 310 308 306 306 307 308 309 309 308 311 318 315 312 313 319 317 320 317 320 332 333 338 352 352 354 350 351 352 351 347 344 342 343 344 344 347 347 347
309 311 315 315 314 314 314 311 311 309 308 306 306 307 307 308 310 315 318 314 313 316 317 323 328 332 328 334 340 350 349 352 345 346 350 352 349 344 343 341 343 345 346 347 347
312 310 314 315 314 313 314 315 312 311 309 309 307 306 307 310 314 319 322 318 312 316 316 324 326 329 331 334 342 350 352 353 345 345 348 348 348 347 345 346 346 346 345 346 346
314 309 310 314 314 314 314 315 315 312 311 310 310 308 309 312 326 323 320 317 313 315 315 318 328 326 329 332 336 353 351 353 352 350 348 350 348 348 347 345 345 344 343 345 345
314 314 312 311 314 314 314 315 315 315 312 311 311 311 311 315 318 322 320 317 314 313 314 317 325 327 328 334 347 351 351 352 351 350 348 347 348 350 349 344 345 343 345 345 344
312 314 314 314 313 314 315 315 315 316 314 312 310 311 312 316 324 323 323 323 316 314 313 319 328 328 328 329 346 352 351 350 348 347 344 345 345 346 348 346 342 343 343 344 343
311 311 312 313 314 314 315 315 315 316 317 313 313 311 311 314 323 323 323 324 316 314 314 326 327 325 327 337 351 351 352 349 348 346 344 344 347 348 345 343 343 340 339 339 344
311 311 311 311 313 314 315 315 315 317 317 315 315 322 318 321 321 322 322 323 315 312 314 323 326 323 326 348 348 350 348 352 348 348 347 347 350 347 345 343 343 340 339 340 343
312 312 312 311 311 314 314 315 317 319 319 318 315 320 324 323 321 320 321 323 315 315 316 321 321 323 326 335 341 343 347 353 351 347 347 347 349 344 346 345 341 340 340 340 345
311 312 312 312 310 314 314 316 322 324 322 322 319 320 323 323 320 323 322 323 319 317 316 317 320 321 318 320 326 347 349 350 350 348 347 349 349 343 342 346 344 341 341 342 344
311 311 312 311 310 313 314 319 322 324 321 322 323 324 324 323 323 324 325 325 322 318 317 321 319 320 321 321 330 348 349 351 348 346 345 347 348 346 341 343 345 344 340 342 342
310 311 311 310 311 313 318 318 321 321 320 323 323 324 324 323 323 322 323 324 321 319 320 320 321 320 321 323 332 346 348 350 348 345 346 347 347 344 342 343 345 346 341 341 342
310 310 309 309 313 315 319 321 321 321 320 324 326 325 323 321 323 322 321 323 321 320 321 320 322 323 324 323 339 344 346 348 350 347 344 345 346 345 343 343 342 344 345 341 342
314 315 311 309 315 320 320 320 320 321 319 324 322 323 322 322 321 323 321 320 319 318 318 319 321 322 324 324 340 348 346 347 349 349 352 344 351 346 344 344 343 343 345 343 344
316 313 311 309 315 317 320 321 322 321 328 327 323 324 324 322 322 321 322 320 318 318 317 317 319 321 322 323 340 347 345 347 347 345 347 347 349 345 344 345 344 343 344 345 343
316 312 310 312 317 322 322 322 323 321 331 327 323 323 323 322 322 322 321 321 321 320 318 317 320 319 323 333 340 343 344 344 344 345 348 348 349 348 345 344 343 343 344 345 344
316 314 313 316 323 321 322 323 321 328 325 323 323 322 322 324 324 321 321 319 319 321 320 318 319 328 343 345 343 342 342 347 349 350 351 347 350 347 344 342 342 343 343 344 345
316 318 319 319 321 320 322 320 328 326 320 322 324 325 326 326 326 322 320 319 319 318 318 320 319 324 334 340 340 340 336 341 345 351 351 346 350 344 341 338 340 341 343 343 344
317 319 321 321 322 321 322 322 326 318 318 321 324 325 326 326 325 323 319 319 320 318 320 321 324 324 325 331 335 337 339 334 339 341 346 348 346 343 340 342 340 340 342 343 345
317 319 323 324 324 322 319 322 323 319 319 320 322 325 326 325 324 326 325 326 324 323 319 323 325 324 324 327 333 329 328 335 337 345 347 350 345 346 341 343 339 340 340 341 342
318 322 326 326 325 323 320 320 322 319 321 321 320 322 322 325 327 328 328 328 324 323 322 320 321 323 322 324 323 322 322 321 328 335 344 350 348 341 340 343 341 339 340 339 340
317 318 325 326 321 319 318 321 320 318 320 317 319 320 321 326 327 327 328 328 326 324 322 322 319 322 322 321 326 321 322 317 319 322 335 337 340 338 337 343 342 341 339 339 338
317 319 325 325 318 317 320 321 319 319 317 317 319 319 319 322 326 327 327 328 325 322 322 321 320 322 322 324 324 328 327 325 317 315 321 330 326 339 338 342 343 343 342 339 341
317 321 325 325 322 322 320 320 318 320 318 318 318 320 321 322 323 326 327 326 325 324 325 321 316 322 322 324 325 326 327 327 325 332 331 323 325 343 341 341 341 340 344 344 341
317 322 324 323 325 322 317 319 319 319 318 318 319 320 320 321 323 324 323 323 325 326 324 318 320 324 324 326 329 330 332 334 335 336 340 341 342 340 340 342 344 350 348 345 343
314 325 328 327 327 318 316 319 316 316 316 315 315 318 321 322 320 321 319 323 324 323 324 318 320 324 326 327 329 330 331 335 335 336 338 342 342 336 337 338 343 347 346 348 345
325 325 327 327 324 320 317 316 316 318 318 316 316 315 319 319 320 321 321 321 319 322 321 320 320 322 325 325 326 331 329 334 334 339 340 345 342 332 330 335 340 339 345 347 348
Wind_Speed
13 13 13 14 15 14 14 12 11 9 8 7 7 8 8 9 11 14 16 8 13 9 5 8 11 11 10 9 14 8 3 1 1 4 3 8 10 17 21 35 25 6 31 35 36
13 12 12 13 14 15 15 14 12 10 9 8 7 7 7 9 11 17 6 9 13 13 9 12 14 11 5 6 5 4 2 8 10 12 1 4 5 26 22 25 17 29 30 40 36
13 11 10 11 12 14 15 15 14 12 10 9 7 6 7 7 7 1 2 11 16 14 10 14 12 6 9 11 5 6 3 5 25 18 7 2 9 12 21 4 32 31 41 44 40
13 12 11 10 12 13 14 14 14 13 11 9 8 6 5 5 3 4 6 3 14 15 13 16 12 4 4 6 11 4 1 4 9 20 9 2 5 10 2 16 31 34 41 41 36
11 12 12 11 11 12 13 14 15 13 12 9 7 6 5 5 7 3 7 2 14 15 15 16 14 8 3 3 7 4 7 7 7 10 9 14 11 3 7 17 37 35 39 39 37
10 10 11 11 11 11 13 15 15 13 11 10 8 5 3 3 1 2 5 6 11 16 15 21 9 1 10 6 5 7 15 12 12 12 8 10 3 11 15 28 33 40 35 37 37
9 10 11 12 12 12 13 14 15 14 11 10 7 7 8 8 4 3 6 9 6 15 17 23 17 8 10 4 8 17 6 10 12 11 6 25 7 8 13 31 23 34 29 30 36
9 11 12 12 12 12 13 14 15 14 10 7 6 10 6 3 4 11 6 8 5 10 12 17 11 12 7 8 6 2 2 4 6 4 0 3 5 1 22 32 25 31 24 24 31
10 11 12 13 13 13 14 13 16 14 9 7 7 7 7 3 8 9 8 10 3 8 10 8 7 9 4 6 4 5 2 4 3 9 3 6 5 5 9 22 26 31 27 25 35
10 11 12 13 13 12 12 12 13 12 9 7 6 8 6 6 3 2 14 14 8 9 8 8 6 2 3 3 5 4 2 3 6 3 6 5 7 4 13 14 11 27 23 35 37
11 12 12 13 12 11 6 10 11 3 14 11 17 15 17 5 7 5 7 12 16 7 5 4 4 4 11 3 3 4 6 6 8 9 7 3 8 9 9 5 6 5 23 32 38
13 13 13 12 10 6 3 7 3 8 11 17 17 19 16 12 2 3 9 7 8 5 1 6 6 9 5 5 7 6 7 6 5 9 2 5 8 10 12 4 6 2 10 39 32
15 15 13 10 6 3 7 9 13 19 6 15 8 13 8 4 4 8 10 9 4 3 4 7 8 8 6 6 8 1 9 9 7 8 1 5 4 4 6 8 7 3 6 25 39
19 17 12 6 2 5 6 13 17 12 4 7 2 2 5 4 5 14 13 7 1 9 5 6 14 9 9 12 6 3 6 14 11 8 3 4 2 5 8 5 5 7 6 18 29
21 16 8 3 2 5 10 11 13 4 4 2 1 6 3 4 3 13 9 11 7 7 4 9 6 7 7 17 9 6 10 11 7 2 1 3 0 3 5 8 7 13 13 16 17
20 13 5 1 2 4 8 13 11 5 3 3 7 4 0 4 7 15 10 12 8 5 5 10 16 5 6 10 15 18 13 11 6 2 0 2 3 4 5 6 11 15 18 17 18
17 9 3 2 1 5 10 12 5 3 6 2 3 3 4 2 3 6 5 3 3 4 4 7 6 6 21 17 7 15 6 3 1 1 2 4 5 8 4 9 16 20 24 22 17
13 6 5 3 2 5 9 5 3 7 4 7 4 5 3 3 3 3 3 3 4 4 2 4 6 10 6 11 12 8 7 6 6 4 3 4 4 6 12 20 25 25 28 24 18
10 11 12 3 2 0 4 4 4 4 4 6 3 4 3 3 5 1 7 3 4 8 6 0 5 4 7 7 11 5 5 5 7 3 2 3 6 8 7 5 6 21 27 28 21
11 15 6 8 5 5 4 4 4 1 5 5 4 3 2 6 5 7 5 3 7 4 5 3 2 2 8 8 7 9 7 4 2 5 2 2 5 5 5 9 12 18 26 29 32
11 9 5 8 9 5 2 6 5 2 3 2 4 3 5 2 4 5 6 4 10 8 9 3 4 8 4 1 9 2 2 5 5 5 5 3 6 8 12 9 12 20 28 32 29
8 3 6 12 5 3 2 5 3 5 7 7 5 6 4 3 3 4 3 3 17 4 4 3 4 2 4 8 4 4 3 4 5 4 1 4 6 3 9 7 15 23 33 33 38
12 7 6 10 3 3 7 6 7 2 4 4 5 4 4 2 1 1 1 4 4 3 2 5 4 4 8 7 7 6 5 2 3 3 2 3 6 6 12 9 17 19 26 37 37
5 3 5 6 7 3 5 6 3 3 3 3 1 5 4 7 4 2 4 4 11 7 12 5 3 4 4 6 4 8 9 6 6 4 5 5 8 2 6 7 4 9 13 34 40
3 4 4 3 7 9 5 3 5 1 6 11 7 9 2 6 5 6 6 7 7 6 5 5 3 4 3 7 18 16 12 11 8 2 4 9 7 12 13 5 8 7 9 23 30
3 3 5 12 11 8 3 1 8 3 3 2 3 5 6 5 4 2 2 3 4 6 3 3 1 2 3 6 16 12 12 13 8 9 2 6 4 10 16 23 22 9 18 13 22
4 7 5 7 6 5 3 7 6 8 2 8 4 4 6 4 9 11 10 9 3 4 3 3 3 3 2 6 4 7 7 9 8 8 2 8 5 9 10 13 10 12 14 16 18
Wind_Direction
11 16 23 27 27 23 15 7 1 349 333 319 306 295 284 272 258 256 256 234 206 161 165 181 192 191 199 244 235 197 130 110 28 277 185 128 164 168 135 130 141 151 146 147 148
12 18 21 23 22 19 16 12 4 358 346 333 319 305 295 283 274 257 261 226 207 198 205 175 177 172 223 240 211 142 126 159 189 232 160 173 115 133 133 139 144 130 146 151 156
14 16 17 17 13 13 14 13 9 1 353 342 332 323 300 297 297 300 254 215 203 197 191 178 189 238 245 252 215 161 208 171 198 203 218 288 55 140 129 115 153 148 148 155 158
14 14 11 10 8 9 9 7 6 3 357 350 340 325 305 289 190 94 23 194 190 196 197 198 210 226 232 216 228 128 16 160 171 201 183 142 73 132 129 181 164 159 159 160 160
9 10 9 7 3 2 360 359 357 355 357 350 345 327 313 281 238 97 10 172 190 194 201 202 208 204 219 318 142 135 167 86 120 142 112 113 36 64 236 192 161 159 161 167 169
3 2 4 6 1 353 350 352 351 347 349 352 342 326 294 287 19 153 29 20 215 203 194 203 203 19 278 251 139 124 113 96 88 82 110 107 51 14 235 182 153 159 167 173 171
353 352 357 358 357 350 343 344 346 345 346 349 341 324 283 227 82 77 314 326 260 216 203 204 219 266 339 354 109 139 111 86 52 75 98 126 185 241 157 154 145 162 166 164 170
341 346 353 349 347 345 339 336 337 336 335 336 334 328 264 121 239 232 259 267 252 202 204 209 230 278 256 127 48 2 94 98 19 67 131 295 186 235 163 153 175 164 171 167 165
335 337 343 345 340 339 337 331 329 321 318 322 309 324 285 252 251 246 236 223 209 180 193 216 277 255 249 102 61 8 150 75 132 9 358 38 171 2 177 176 164 172 182 164 160
332 330 335 337 338 334 335 332 337 315 295 323 292 313 323 307 81 81 191 219 207 209 237 250 238 211 41 104 202 148 158 99 92 55 342 342 256 358 28 183 191 178 179 151 167
334 328 330 333 336 335 338 343 352 333 308 283 295 265 292 97 122 166 208 207 221 196 183 213 74 205 217 149 183 129 97 179 167 153 169 233 261 284 343 7 285 231 164 157 162
335 330 329 331 332 339 314 323 359 319 308 304 293 274 272 278 244 231 219 206 170 197 189 4 214 224 207 230 195 124 124 156 106 150 282 201 255 284 294 247 235 9 181 165 156
338 331 326 324 326 302 294 324 330 315 297 300 266 242 247 247 247 244 187 220 157 185 197 180 228 210 209 228 182 140 146 178 147 161 86 146 260 233 273 183 226 262 193 175 165
337 330 323 313 308 299 338 353 350 328 37 280 246 290 211 230 285 236 202 199 253 201 213 232 253 219 210 233 144 121 135 119 142 157 217 188 252 226 259 209 221 229 187 191 169
339 340 324 280 270 301 341 338 336 317 19 200 162 157 133 191 314 172 175 210 255 255 119 242 242 197 200 230 136 164 161 146 143 116 59 228 257 214 168 241 220 239 216 180 172
344 349 346 323 152 359 338 329 332 46 279 236 146 173 150 214 247 195 183 208 240 238 225 241 256 169 221 144 133 132 90 49 59 65 187 247 194 261 181 214 218 215 215 198 168
343 345 342 200 326 328 329 347 35 113 319 13 169 149 208 217 22 153 182 216 194 26 359 329 264 99 104 83 87 117 99 63 355 259 223 306 175 276 264 236 222 207 195 203 194
333 327 292 207 182 300 334 48 44 294 10 8 87 65 18 32 314 187 149 250 250 149 272 224 323 137 200 157 168 182 150 148 215 181 156 217 119 263 226 297 268 209 191 207 225
326 315 305 210 218 234 347 43 227 310 313 7 351 69 313 296 186 348 190 205 256 174 196 275 290 316 181 156 144 203 204 165 104 351 113 156 254 287 234 289 179 188 170 201 215
337 317 310 182 194 218 71 238 258 324 348 38 46 33 331 330 57 40 344 149 346 327 183 263 359 315 294 124 249 150 169 78 2 142 184 253 285 260 219 193 171 179 178 192 208
342 328 123 195 196 222 177 233 265 206 15 331 6 317 0 61 73 10 310 349 16 331 62 37 89 300 8 45 185 353 25 68 120 140 157 160 257 214 227 170 177 172 182 196 207
345 348 47 173 151 214 213 211 267 25 49 28 59 30 47 45 118 177 238 11 344 353 12 328 127 324 272 293 43 71 48 93 124 260 162 157 266 172 183 173 168 187 194 202 203
332 280 242 252 230 261 279 274 216 55 50 45 17 15 3 9 56 234 308 287 1 65 69 330 13 11 350 349 11 47 1 70 144 77 131 130 270 17 123 157 185 189 199 199 203
324 341 323 279 256 272 283 301 185 111 90 92 317 21 20 18 14 88 356 30 43 39 38 70 76 121 170 234 255 12 4 53 85 70 300 217 296 276 155 163 184 213 219 214 202
266 268 350 293 319 316 220 251 115 133 79 40 23 24 25 23 36 32 355 356 12 40 49 88 62 16 356 62 75 52 33 58 73 261 121 294 339 9 4 9 26 319 257 203 194
279 327 310 291 315 343 5 292 119 94 108 11 76 37 59 69 146 23 81 23 288 350 62 11 334 32 29 79 79 54 47 55 58 10 28 16 31 4 28 40 28 48 125 123 178
241 279 278 302 356 1 276 211 159 125 83 117 101 84 47 329 351 334 316 78 88 31 2 51 97 55 329 313 98 33 343 63 62 24 2 41 329 10 19 32 17 25 66 102 137